Location: Unspecified
(0.0000°N, 0.0000°E)
Time: 23:14:36
(UTC+00:00)

Vanguard 1 - Pass Details

Date: 07 October 2020
Orbit: 649 x 3833 km, 34.3° (Epoch: 28 October)

Event Time Altitude Azimuth Distance (km) Brightness Sun altitude
Rises 18:37:12 0° 276° (W) 6,960 16.2 -12.3°
Reaches altitude 10° 18:46:21 10° 299° (WNW) 5,095 14.5 -14.6°
Maximum altitude 18:51:48 13° 323° (NW) 4,250 13.7 -16.0°
Drops below altitude 10° 18:56:15 10° 348° (NNW) 3,969 13.2 -17.1°
Sets 19:01:25 0° 16° (NNE) 4,317 13.2 -18.3°
